sat.trackr.live / text

‹ back to catalog

STARLINK-11476 [DTC]

NORAD 62228 · 2024-231L

PAYLOAD ACTIVE UNKNOWN

§ Identity

Operator
Country
US
Launch date
2024-12-05
Launch site
AFWTR
Launch vehicle
Mass (kg)
RCS (m²)

Purposes: comms

External: N2YO · Heavens-Above · Gunter

§ Orbital elements

Epoch: 2026-05-25T04:55:49.370592Z

Period
91.73 min
Inclination
53.1566°
Eccentricity
0.0001196
Mean motion
15.69763526 rev/d
Perigee alt
358.8 km
Apogee alt
360.4 km
Semi-major
6,737.7 km
B*
1.2488e-3
RAAN
83.7393°
Arg perigee
47.3793°
Mean anomaly
312.7325°
Rev number
8,544

§ Raw data

STARLINK-11476 [DTC]1 62228U 24231L   26145.20543253  .00153878  00000+0  12488-2 0  99902 62228  53.1566  83.7393 0001196  47.3793 312.7325 15.69763526 85445

JSON: /api/v1/satellites/62228 · /tle

For live sub-satellite position, see the globe view (requires WebGL).

§ Visibility from observer

Set your observer location to see the next 7 days of passes ≥ 10°. The values pass through the URL so the page stays shareable.

No JS? Fill the form by hand. The geolocation button needs JavaScript.